This is the latest recevied weather packets stored in our database for station/object N5TSS. If no packets are shown the sender has not sent any weather packets the latest 1 day(s).
| Time | Temp. | Humidity | Pressure | Rain* | Wind** | Luminosity | Snow |
|---|---|---|---|---|---|---|---|
| 1778028177 | 26.67° C | 77% | 1007.8 hPa | 0 mm | - | - | - |
| 1778027872 | 26.67° C | 77% | 1007.8 hPa | 0 mm | - | - | - |
| 1778027569 | 26.67° C | 77% | 1007.8 hPa | 0 mm | - | - | - |
| 1778027265 | 26.67° C | 77% | 1007.8 hPa | 0 mm | - | - | - |
| 1778026657 | 26.67° C | 77% | 1007.8 hPa | 0 mm | - | - | - |
| 1778026355 | 26.67° C | 77% | 1007.8 hPa | 0 mm | - | - | - |
| 1778022723 | 27.78° C | 73% | 1007.8 hPa | 0 mm | - | - | - |
| 1778021813 | 27.78° C | 73% | 1007.4 hPa | 0 mm | - | - | - |
| 1778021205 | 28.33° C | 73% | 1007.8 hPa | 0 mm | - | - | - |
| 1778020601 | 28.33° C | 72% | 1007.8 hPa | 0 mm | - | - | - |
| 1778017268 | 28.89° C | 71% | 1007.4 hPa | 0 mm | - | - | - |
| 1778016056 | 28.33° C | 72% | 1008.1 hPa | 0 mm | - | - | - |
| 1778015146 | 28.89° C | 71% | 1008.1 hPa | 0 mm | - | - | - |
| 1778012116 | 28.33° C | 72% | 1009.1 hPa | 0 mm | - | - | - |
| 1778011511 | 27.78° C | 73% | 1009.1 hPa | 0 mm | - | - | - |
| 1778009092 | 27.78° C | 74% | 1009.5 hPa | 0 mm | - | - | - |
| 1778008789 | 27.78° C | 74% | 1009.5 hPa | 0 mm | - | - | - |
| 1778007879 | 27.78° C | 74% | 1009.5 hPa | 0 mm | - | - | - |
| 1778005756 | 27.78° C | 75% | 1009.8 hPa | 0 mm | - | - | - |
| 1778005149 | 27.22° C | 76% | 1009.8 hPa | 0 mm | - | - | - |
| 1778004240 | 26.67° C | 78% | 1010.2 hPa | 0 mm | - | - | - |
* Rain latest hour (hover to see other rain measurements)
** Current wind speed in m/s (hover to see current wind gust speed)